Location: Unspecified
(50.7693°N, 0.0000°E)
Time: 10:19:50
(UTC+00:00)

A-11 Canister half - Pass Details

Date: 18 June 2019
Orbit: 1527 x 1682 km, 47.3° (Epoch: 15 October)

Event Time Altitude Azimuth Distance (km) Brightness Sun altitude
Rises 08:19:34 0° 263° (W) 4,695 11.1 39.6°
Reaches altitude 10° 08:22:37 10° 261° (W) 3,704 10.7 40.1°
Maximum altitude 08:31:53 73° 180° (S) 1,588 9.9 41.5°
Drops below altitude 10° 08:41:11 10° 98° (E) 3,720 12.1 42.9°
Sets 08:44:16 0° 96° (E) 4,716 12.3 43.4°
